Weather in Kondrakovo

Russia / Ivanovo Oblast     57°23′57″N   42°31′51″E
temp.,
°C
wind,
m/s
gust,
m/s
humid.,
%
clouds,
%
prec.,
mm/h
press.,
hPa
HPBL,
m
4 march, thu
thu400:00−2wsw4119294 0.1 1000643
03:00−2wsw5119597 0.3 998675
06:00−1sw51296100 1.2 993719
09:000wnw61196100 3.1 990987
12:00−1wnw7118174 1.7 9921336
15:00−2nw6108387 1.9 9951226
18:00−6wnw3108874 0.1 997273
21:00−10nw249366 0.1 99986
5 march, fri
fri500:00−13wnw23940 0.0 100021
03:00−14w23960 0.0 100227
06:00−15w239730 0.0 100269
09:00−11w369437 0.0 1003236
12:00−6w369097 0.1 1004612
15:00−5wnw468699 0.1 1006935
18:00−7w379699 0.4 1008282
21:00−11nw3109199 0.8 1011429
6 march, sat
sat600:00−16wnw249677 0.0 101381
03:00−19wnw239638 0.0 101532
06:00−20wnw239911 0.0 101526
09:00−16wnw239627 0.0 1016148
12:00−11w238892 0.0 1016618
15:00−10wnw348696 0.2 1015803
18:00−14w2393100 0.1 101439
21:00−17wsw239558 0.1 101423
7 march, sun
sun700:00−18ssw23970 0.0 101259
03:00−15ssw499449 0.0 1009252
06:00−13ssw5149176 0.0 1005447
09:00−10ssw6129488 0.6 1001697
12:00−7ssw61193100 1.2 997899
15:00−5ssw61194100 2.2 993947
18:00−5s41096100 1.2 991661
21:00−8wnw71491100 2.8 9911045
8 march, mon
mon800:00−10w51283100 0.2 992427
03:00−16wsw349253 0.2 99379
06:00−13ssw249788 0.1 99383
09:00−8ssw249594 0.4 994323
12:00−5sw1193100 0.8 994387
15:00−5nnw3494100 1.3 996429
18:00−9nw3888100 0.4 999253
21:00−10wnw41094100 0.4 1003406